Location: Carabito
(9.8355°N, 67.9249°W)
Time: 03:19:31
(UTC+00:00)

Daily predictions for brighter satellites

Satellite Brightness Start Highest point End
(mag) Time Altitude Azimuth Time Altitude Azimuth Time Altitude Azimuth
Hubble Space Telescope 0.7 00:00:11 10° WSW 00:04:10 79° NNW 00:06:11 28° NE
Resurs 01 Rocket 3.3 00:08:01 18° NE 00:08:01 18° NE 00:10:08 10° NNE
Cosmos 2233 Rocket 4.2 00:03:19 10° N 00:09:35 71° W 00:15:51 10° S
Sylda 5 4.0 00:10:51 10° WSW 00:16:59 22° S 00:17:41 21° S
Meteor 2-21 Rocket 4.3 00:12:49 10° S 00:19:01 74° E 00:25:11 10° N
Cosmos 1782 3.6 00:15:25 10° SSW 00:19:04 48° W 00:22:44 10° N
Okean O Rocket 3.4 00:24:28 19° NE 00:24:28 19° NE 00:26:14 10° NNE
Delta 7925 Rocket 3.1 00:17:59 10° WSW 00:23:12 80° SSE 00:24:00 60° E
Cosmos 1943 4.5 00:26:43 24° NE 00:26:43 24° NE 00:29:14 10° NE
Cosmos-2242 4.4 00:20:49 10° SSW 00:24:39 36° W 00:28:30 10° NNW
Feng Yun 1-1 Rocket 4.5 00:30:17 51° E 00:30:44 52° ENE 00:36:26 10° N
Cosmos 1072 Rocket 4.5 00:32:48 10° N 00:38:32 55° ENE 00:38:32 55° ENE
IUS R/B (1) 4.5 00:34:48 10° NW 00:38:48 45° NE 00:42:16 34° E
SEDSat Delta rocket 4.5 00:35:35 10° W 00:39:56 29° SW 00:39:58 29° SW
SPOT 1/Viking Rocket 3.8 00:39:31 44° SSW 00:41:00 64° WSW 00:46:06 10° NNW
Cosmos 1943 Rocket 2.9 00:46:13 10° N 00:50:13 42° NNE 00:50:13 42° NNE
CZ-4B R/B 3.2 00:53:17 74° WSW 00:53:22 74° WSW 00:58:42 10° NNW
MOS 1-B 4.3 00:59:03 78° NNW 00:59:03 78° NNW 01:04:24 10° NNW
ATLAS 3B R/B 4.4 00:57:45 10° NNE 01:01:44 20° NE 01:01:44 20° NE
Palapa 6 Rocket 4.1 00:58:20 10° W 01:04:21 59° NW 01:04:21 59° NW
Cosmos 1464 Rocket 4.1 01:03:15 10° N 01:08:46 70° NW 01:08:46 70° NW
Cosmos 2278 Rocket 3.0 01:06:06 10° NNW 01:11:18 45° W 01:11:18 45° W
ATLAS 5 CENTAUR R/B 3.4 01:08:18 10° NW 01:14:27 45° WSW 01:15:21 43° SW
ATLAS 5 CENTAUR R/B 4.2 05:33:36 10° WNW 06:38:59 79° SSE 06:48:15 10° ESE
SL-16 R/B 4.1 07:01:53 31° NE 07:01:53 31° NE 07:06:13 10° NNE
Cosmos 2360 Rocket 4.1 07:16:41 10° NNE 07:21:19 26° ENE 07:23:20 21° ESE
Cosmos 2297 Rocket 2.7 07:48:13 56° ENE 07:48:13 56° ENE 07:53:05 10° NNE
Cosmos 2333 Rocket 2.9 07:49:30 10° N 07:55:03 52° ENE 08:00:38 10° SSE
Lacrosse 5 rocket 4.0 07:53:05 10° NNE 07:55:31 16° NE 07:57:55 10° E
Cosmos 2322 Rocket 3.4 07:53:17 10° NNW 07:56:06 31° NNW 07:56:06 31° NNW
COSMOS 2455 2.8 08:07:37 70° NW 08:07:37 70° NW 08:13:17 10° NNE
Cosmos 332 Rocket 3.8 08:15:58 71° SE 08:16:11 72° ESE 08:20:59 10° NNE
CZ-3 R/B 4.3 07:33:43 10° WNW 08:17:20 57° N 08:27:36 10° E
CZ-4C R/B 2.1 08:19:12 45° N 08:19:12 45° N 08:22:13 10° NNE
Palapa 6 Rocket 3.5 08:19:32 46° NE 08:19:32 46° NE 08:22:50 10° E
Okean 1 Rocket 3.4 08:17:38 10° N 08:20:59 54° N 08:20:59 54° N
CZ-2C R/B 3.8 08:21:30 10° NNW 08:23:39 23° NNW 08:23:39 23° NNW
Meteor 1-11 4.3 08:24:24 31° S 08:27:11 77° E 08:32:50 10° N
IRS-1D 4.0 08:22:50 10° N 08:27:20 42° WNW 08:27:20 42° WNW
ARIANE 5 R/B 4.1 07:55:02 10° W 08:28:49 53° SSW 08:35:13 10° ESE
Hubble Space Telescope 1.9 08:29:32 29° NNW 08:30:56 39° NNE 08:34:39 10° E
CSL-04 DEB 4.3 08:27:36 10° N 08:31:00 67° N 08:31:00 67° N
Ariane H10 3.6 08:33:24 14° SE 08:33:24 14° SE 08:33:53 10° ESE
Cosmos 1484 Rocket 3.2 08:29:31 10° NNE 08:33:11 55° E 08:34:14 40° SSE
Cosmos 1975 Rocket 3.7 08:40:25 37° WNW 08:40:25 37° WNW 08:43:41 10° NNW
OAO 1 4.4 08:37:02 29° WNW 08:39:51 79° SW 08:45:19 10° SE
SL-12 R/B(2) 4.0 08:37:19 34° SW 08:40:42 65° WNW 08:48:40 10° NNE
H-2A R/B 3.9 08:38:44 31° SW 08:41:11 35° SSW 08:53:59 10° SE
Aureole 1 Rocket 3.8 08:39:40 21° SSE 08:41:36 37° ESE 08:44:36 10° NE
USA 215 3.2 08:36:34 10° NNE 08:43:02 68° NW 08:46:19 31° SW
RESURS DK-1 2.2 08:39:29 10° NNW 08:43:28 62° WSW 08:44:00 55° SW
SL-16 R/B 4.1 08:46:58 16° WNW 08:46:58 16° WNW 08:48:47 10° NW
Cosmos 2341 Rocket 4.3 08:43:05 35° SW 08:45:10 46° W 08:51:07 10° NNW
Cosmos 864 Rocket 4.4 08:41:46 27° SSW 08:45:14 62° W 08:51:23 10° N
Sakura Rocket 4.4 08:42:57 28° SSW 08:45:35 42° SSE 08:50:14 10° E
Cosmos 990 Rocket 3.8 08:44:36 29° SSW 08:47:17 80° WNW 08:52:28 10° N
Nadezhda 3 Rocket 4.3 08:42:50 10° NNW 08:48:42 42° W 08:51:49 25° SW
Cosmos 1339 Rocket 4.4 08:42:50 10° N 08:49:12 78° W 08:55:35 10° S
Cosmos 2333 4.3 08:45:17 10° NNW 08:50:51 53° WSW 08:56:27 10° S
Cosmos 1821 Rocket 4.2 08:45:27 10° S 08:51:38 73° E 08:57:44 10° N
Cosmos 2366 rocket 4.1 08:48:02 25° SSW 08:51:40 53° W 08:57:49 10° N
Ariane H10-3 2.1 08:52:46 40° SSE 08:52:46 40° SSE 08:54:45 10° ESE
Cosmos 1939 Rocket 2.9 08:49:44 10° NNE 08:53:43 76° E 08:56:49 16° S
Cosmos 2219 Rocket 2.1 08:50:33 10° NNW 08:56:11 72° WSW 09:01:49 10° S
ARIANE 5 DEB (SYLDA) 4.5 08:55:32 29° SSW 08:56:43 37° SSE 09:02:07 10° E
Cosmos 2219 3.6 08:51:50 10° S 08:57:30 66° ESE 09:03:06 10° NNE
NOSS 3-2 (A) 4.4 08:54:39 10° S 08:58:59 32° ESE 09:03:23 10° NE
Cosmos 2263 Rocket 3.4 08:54:41 10° S 08:59:58 41° ESE 09:05:12 10° NE
Geosat 3.9 08:55:03 10° SSE 09:00:02 82° WSW 09:05:02 10° NNW
ASTEX 1 4.2 09:00:39 28° WSW 09:01:23 29° W 09:05:37 10° NW
BlueWalker 3 3.0 08:59:38 17° S 09:02:05 38° ESE 09:05:33 10° NE
ATLAS 2AS CENTAUR R/B 3.4 08:58:03 10° N 09:04:28 55° ENE 09:10:51 10° SE
Cosmos 2360 Rocket 3.3 09:00:42 10° NW 09:04:42 22° W 09:04:42 22° W
COSMOS 2428 3.6 09:00:20 10° N 09:05:51 52° ENE 09:11:22 10° SSE
Chandra Rocket (1) 3.1 09:05:30 23° SSW 09:06:11 24° SSW 09:11:23 10° SE
Cosmos 1536 Rocket 3.6 09:03:20 10° S 09:07:43 79° E 09:12:08 10° N
Cosmos 2227 Rocket 2.6 09:04:48 22° SW 09:08:01 43° WNW 09:13:21 10° N
Ariane H10-3 2.2 09:13:27 21° WSW 09:15:14 32° S 09:18:02 10° ESE
H-2A R/B 2.8 09:11:02 10° N 09:15:57 36° WNW 09:20:08 13° SW
Cosmos 292 Rocket 3.6 09:14:29 10° SSW 09:19:11 79° WNW 09:23:53 10° N
ARIANE 5 R/B 2.6 09:17:24 10° NNE 09:22:23 78° ESE 09:27:21 10° S
Cosmos 1455 Rocket 3.6 09:19:04 10° NNW 09:23:05 36° W 09:27:08 10° SSW
CENTAUR R/B 1.9 09:20:26 12° SW 09:24:45 63° WNW 09:30:05 10° NNE
Cosmos 839 Rocket 4.5 09:21:58 10° NW 09:27:32 37° WSW 09:33:22 10° S
H-2A R/B 2.7 09:24:36 10° N 09:27:35 40° WNW 09:30:38 10° SSW
CZ-3 Stage 3 2.8 09:27:10 10° NNW 09:28:39 18° NE 09:30:58 10° E
SL-8 R/B 3.8 09:25:18 10° NW 09:29:57 52° SW 09:34:36 10° SSE
Delta 128 4.3 09:24:35 13° SW 09:30:07 68° SSE 09:35:21 10° ENE
ASTRO E2 3.1 09:28:00 12° SW 09:30:59 42° SSE 09:34:17 10° ENE
Lacrosse 5 rocket 2.5 09:31:06 10° WNW 09:33:36 17° WSW 09:36:04 10° SSW
Ariane H10 4.1 09:35:30 10° SW 09:36:33 11° SSW 09:37:27 10° S
Cosmos 1606 2.5 09:33:05 10° N 09:36:37 85° E 09:40:10 10° S
ARIANE 5 R/B 4.0 09:30:24 11° WSW 09:36:59 22° SSW 09:39:50 10° SSE
Cosmos 2333 Rocket 4.0 09:37:38 10° W 09:38:54 11° WSW 09:40:11 10° WSW
ARIANE 5 R/B 4.2 09:11:41 10° W 09:39:21 46° SSW 09:43:49 10° ESE
ARIANE 3 DEB 3.4 09:38:57 10° SW 09:40:34 17° S 09:42:11 10° SE
Cosmos 1727 Rocket 4.2 09:37:09 10° N 09:43:25 81° E 09:49:45 10° S
NOAA 12 4.1 09:39:01 10° N 09:44:15 72° WNW 09:49:31 10° SSW
NOSS 3 (A) 4.4 09:42:29 10° SW 09:44:54 38° WNW 09:46:49 10° N
Cosmos 1869 3.2 09:43:54 10° NNW 09:47:32 55° W 09:51:10 10° S
Cosmos 1892 Rocket 4.2 09:47:02 10° S 09:51:16 59° E 09:55:29 10° NNE
Centaur AC-72 4.3 09:32:03 10° WNW 10:06:38 87° NNE 10:13:30 10° ESE
